Regional Weather Roundup
Issued by NWS

Home | Current Version | Previous Version | Graphics & Text | Print | Product List | Glossary On
Versions: 1 2 3 4 5 6 7 8 9 10 11 12 13 14 15 16 17 18 19 20 21 22 23 24 25 26 27 28 29 30 31 32 33 34 35 36 37 38 39 40 41 42 43 44 45 46 47 48 49 50
000
ASUS43 KDTX 042110
RWRMI
MICHIGAN HOURLY REGIONAL WEATHER ROUNDUP
NATIONAL WEATHER SERVICE DETROIT/PONTIAC MI
500 PM EDT SAT JUL 04 2015

NOTE: "FAIR" INDICATES FEW OR NO CLOUDS BELOW 12,000 FEET WITH NO
SIGNIFICANT WEATHER AND/OR OBSTRUCTION TO VISIBILITY.

MIZ047>049-052>055-059>063-066>070-074>076-081>083-042200-
SOUTHEAST LOWER MICHIGAN

CITY           SKY/WX    TMP DP  RH WIND       PRES   REMARKS
ADRIAN         SUNNY     77  53  43 CALM      30.01F
ALMA           SUNNY     81  57  44 SW3       29.98S
ANN ARBOR      HAZE      78  57  48 VRB6      30.00S VSB 1/2
BAD AXE        SUNNY     80  53  39 W6        29.97F
CARO           SUNNY     80  58  46 SW10      29.97F
DETROIT CITY   SUNNY     77  52  41 SE8       29.99F
DETROIT        MOSUNNY   80  54  40 SW5       30.00F
FLINT          SUNNY     81  56  42 W5        30.00R
GROSSE ILE     SUNNY     75  61  60 S8        29.99S
HILLSDALE      SUNNY     78  56  46 NW6       30.02S
HOWELL         SUNNY     78  55  44 SW9       30.00F

CITY           SKY/WX    TMP DP  RH WIND       PRES   REMARKS
JACKSON        SUNNY     77  58  51 W6        30.01S
LAMBERTVILLE   SUNNY     79  52  39 CALM      30.00F
LANSING        SUNNY     80  54  40 W10       30.01S
LAPEER         FAIR      80  51  35 W3        30.00S
MASON          SUNNY     76  55  47 SW5       30.01S
MONROE         SUNNY     78  55  45 CALM      30.00S
MT. CLEMENS    SUNNY     76  57  51 S9        29.98S
PONTIAC        CLOUDY    78  55  44 NW6       30.00S
PORT HOPE        N/A     70  60  70 E12       29.97S
PORT HURON     MOSUNNY   77  55  47 NW3       29.99S
TRI CITIES     SUNNY     82  58  43 SW9       29.98S
MIDLAND        FAIR      82  58  44 SW9       29.95F
TROY           SUNNY     80  50  34 NW7       30.01S
SAGINAW HB     SUNNY     81  52  36 SW10      29.97F
$$
MIZ043>046-050>051-056>058-064>065-071>073-077>080-042200-
SOUTHWEST LOWER MICHIGAN

CITY           SKY/WX    TMP DP  RH WIND       PRES   REMARKS
BATTLE CREEK   MOSUNNY   78  57  48 SW7       30.02S HAZE
BENTON HARBOR  SUNNY     76  56  49 W8        30.01F
BIG RAPIDS     PTSUNNY   80  56  43 SW9       29.97S
COLDWATER      SUNNY     76  55  47 SW6       30.01S
FREMONT        FAIR      80  56  44 W8        29.99S
HOLLAND        SUNNY     76  58  53 W10       30.02S
GRAND RAPIDS   PTSUNNY   80  59  48 W9        30.00S
IONIA          FAIR      80  56  42 W5        29.99F
KALAMAZOO      MOSUNNY   80  57  45 W5        30.01S
LUDINGTON      MOSUNNY   71  61  71 SW8       30.01R
MARSHALL       MOSUNNY   79  58  48 NW6       30.00F
MOUNT PLEASANT SUNNY     82  58  44 SW5       29.96F
MUSKEGON       PTSUNNY   73  59  61 SW10      30.01S
SOUTH HAVEN    SUNNY     74  56  53 W6        30.02S
$$
MIZ016>042-042200-
NORTHERN LOWER MICHIGAN

CITY           SKY/WX    TMP DP  RH WIND       PRES   REMARKS
ALPENA         SUNNY     76  59  55 SE8       29.97R
BEAVER ISLAND  SUNNY     74  58  58 SW5       29.99F
BELLAIRE       SUNNY     79  54  41 NW5       29.98S
CADILLAC       PTSUNNY   80  60  51 NW8       29.98S
CHARLEVOIX     SUNNY     72  59  64 NW6       30.02S
FRANKFORT      SUNNY     75  56  52 W5        30.00S
GAYLORD        SUNNY     77  54  44 W7        30.00R
GRAYLING       SUNNY     80  55  42 NW7       29.99S
HARBOR SPRINGS SUNNY     65  60  85 S6        29.99S
HOUGHTON LAKE  PTSUNNY   79  57  46 NW7       29.98S
MANISTEE       MOSUNNY   73  59  60 NW8       30.00S
OSCODA         MOSUNNY   76  59  55 SE8       29.96R
PELLSTON       SUNNY     77  56  48 NW6       29.98S
ROGERS CITY    SUNNY     72  60  67 N8        29.99S
TRAVERSE CITY  PTSUNNY   76  58  53 N8        29.97S
$$
MIZ007>008-015-042200-
EASTERN UPPER MICHIGAN

CITY           SKY/WX    TMP DP  RH WIND       PRES   REMARKS
KINROSS        MOSUNNY   72  54  53 NW9       29.98F
MACKINAC ISLAN SUNNY     71  59  67 SW3       29.98S
NEWBERRY       SUNNY     73  57  57 NW3       29.98F
S. S. MARIE    MOSUNNY   70  56  61 W8        29.98R
MUNISING         N/A     60  53  77 NE6       30.00F
$$
MIZ004>006-011>014-085-042200-
CENTRAL UPPER MICHIGAN

CITY           SKY/WX    TMP DP  RH WIND       PRES   REMARKS
MANISTIQUE     SUNNY     69  59  69 SW6       29.99S
ESCANABA       SUNNY     73  57  56 S8        29.98S
MENOMINEE      MOSUNNY   73  61  64 SE9       29.98S
SAWYER-GWINN   SUNNY     70  57  64 E7        30.01S
$$
MIZ001>003-009>011-084-042200-
WESTERN UPPER MICHIGAN

CITY           SKY/WX    TMP DP  RH WIND       PRES   REMARKS
IRON MOUNTAIN  MOSUNNY   80  55  42 CALM      29.97S
HOUGHTON       MOSUNNY   67  56  67 E10       29.99F
COPPER HARBOR    N/A     69  54  58 VRB7      29.99S
IRONWOOD       PTSUNNY   77  55  47 N7        29.93S
$$

ABBREVIATIONS USED IN REMARKS
   TC - TEMPERATURE IN CELSIUS
  WCI - WIND CHILL INDEX
   HX - HEAT INDEX
  VSB - VISIBILITY



USA.gov is the U.S. government's official web portal to all federal, state and local government web resources and services.